Weather in Diekirch

Luxembourg     49°48′16″N   6°25′46″E
temp.,
°C
wind,
m/s
gust,
m/s
humid.,
%
clouds,
%
prec.,
mm/h
press.,
hPa
HPBL,
m
15 may, sat
sat1523:00+6ssw34965 0.0 101054
02:00+6s2899100 0.0 1009352
05:00+7sw4998100 0.1 1008602
08:00+7ssw4796100 0.1 1009464
11:00+9ssw5994100 0.9 1007658
14:00+9ssw51093100 2.3 10061227
17:00+11ssw6108876 0.4 1004971
20:00+10sw5992100 2.6 1003478
16 may, sun
sun1623:00+6sw4109585 1.0 1005220
02:00+6ssw3999100 1.1 1006250
05:00+8ssw4119563 1.0 1005470
08:00+8sw5995100 1.4 1006820
11:00+9sw61090100 0.3 10051012
14:00+12sw7979100 1.3 10041033
17:00+12sw5780100 1.1 1003961
20:00+10wsw6109121 4.1 1002535
17 may, mon
mon1723:00+8ssw3996100 1.0 1004243
02:00+9sw51297100 3.1 1004841
05:00+8sw61297100 6.4 10051061
08:00+8sw71296100 7.6 10061028
11:00+8sw81394100 0.6 10071136
14:00+10sw7139393 2.8 10081073
17:00+11wsw7118981 1.4 10081189
20:00+10sw5119129 2.3 1009636
18 may, tue
tue1823:00+8sw41297100 0.9 1010404
02:00+8sw41097100 2.4 1011399
05:00+8wsw61192100 0.1 1012778
08:00+8wsw61296100 0.5 1013960
11:00+8wsw71295100 0.8 10151044
14:00+11w6989100 2.6 1016973
17:00+11w588657 2.0 10171061
20:00+10w5990100 4.1 1018490
19 may, wed
wed1923:00+6sw22951 0.4 102128
02:00+4ssw2294100 0.4 102127
05:00+6ssw2898100 0.3 1020299
08:00+7wsw479591 0.5 1021558
11:00+8w479187 0.4 1021531
14:00+12w677482 1.0 10211475
17:00+14w586810 1.0 10211469
20:00+12wnw4878100 1.4 1021214